Flag Weather past 2 weeks in Laval, Quebec, Canada

Now
30 °F

Overcast.


Feels Like: 22 °F
Forecast: N/A
Wind: 9 mph from Southwest

Location: Montreal / Mirabel

Current Time: Nov 22, 2014 at 6:57:03 PM

Latest Report: Nov 22, 2014 at 6:00 PM


Visibility: 15 mi

Pressure: 29.89 "Hg

Humidity: 80%

Dew point: 25 °F

Location of LavalLocation

Historic Weather in Laval — Graph

°F

Laval temperature yesterday

Maximum temperature yesterday: 23 °F (at 1:00 PM)
Minimum temperature yesterday: 14 °F (at 11:00 PM)
Average temperature yesterday: 18 °F

Past Weeks' High & Low Weather Summary

 TemperatureHumidityPressure
High48 °F (Nov 11, 1:00 PM)100% (Nov 9, 2:00 AM)30.35 "Hg (Nov 9, 2:00 AM)
Low14 °F (Nov 21, 11:00 PM)33% (Nov 9, 2:00 PM)29.40 "Hg (Nov 18, 1:00 AM)
Average30 °F72%29.93 "Hg
* Reported Nov 7 5:00 PM — Nov 22 5:00 PM, Laval, Weather by CustomWeather, © 2014

Note: Actual official high and low records may vary slightly from our data, if they occured in-between our weather recording intervals... More about our weather records

Advertising

Laval weather history for previous 24 hours

 ConditionsComfort  
Time TempWeatherWind HumidityBarometerVisibility
5:00 PM
Nov 22
30 °FSleet. Overcast.9 mph75%29.89 "Hg15 mi
4:00 PM32 °FLight freezing rain. Overcast.10 mph64%29.90 "Hg10 mi
3:00 PM32 °FOvercast.8 mph55%29.90 "Hg35 mi
2:00 PM32 °FOvercast.10 mph51%29.93 "Hg25 mi
1:00 PM30 °FMostly cloudy.12 mph59%29.97 "Hg25 mi
12:00 PM30 °FMostly cloudy.15 mph59%30.00 "Hg25 mi
11:00 AM28 °FCloudy.16 mph64%30.05 "Hg25 mi
10:00 AM30 °FBroken clouds.14 mph64%30.07 "Hg25 mi
9:00 AM27 °FBroken clouds.9 mph74%30.11 "Hg25 mi
8:00 AM25 °FPartly sunny.12 mph80%30.14 "Hg25 mi
7:00 AM23 °FMostly cloudy.16 mph74%30.16 "Hg25 mi
6:00 AM21 °FPassing clouds.15 mph74%30.19 "Hg25 mi
5:00 AM21 °FPartly cloudy.12 mph68%30.22 "Hg25 mi
4:00 AM19 °FPassing clouds.7 mph68%30.24 "Hg25 mi
3:00 AM16 °FPassing clouds.5 mph73%30.27 "Hg25 mi
2:00 AM14 °FPassing clouds.2 mph73%30.29 "Hg25 mi
1:00 AM16 °FPassing clouds.3 mph67%30.29 "Hg25 mi
12:00 AM18 °FPassing clouds.3 mph62%30.30 "Hg25 mi
11:00 PM
Nov 21
14 °FPassing clouds.3 mph67%30.32 "Hg25 mi
10:00 PM16 °FPassing clouds.5 mph62%30.34 "Hg25 mi
9:00 PM16 °FPassing clouds.5 mph62%30.34 "Hg25 mi
8:00 PM16 °FPassing clouds.3 mph62%30.35 "Hg25 mi
7:00 PM16 °FPassing clouds.5 mph62%30.34 "Hg25 mi
6:00 PM18 °FPassing clouds.7 mph58%30.33 "Hg25 mi
Weather by CustomWeather, © 2014

See weather overviewHow to use our weather pages